Location: El Herrad�n
(40.5648°N, 4.5592°W)
Time: 15:23:10
(UTC+00:00)

Daily predictions for brighter satellites

Satellite Brightness Start Highest point End
(mag) Time Altitude Azimuth Time Altitude Azimuth Time Altitude Azimuth
Cosmos 2227 Rocket 2.4 20:13:09 10° NNW 20:18:48 78° WSW 20:24:27 10° SSE
Cosmos 2263 Rocket 3.8 20:14:47 10° N 20:19:04 21° NE 20:23:19 10° E
SPOT 3 Rocket 4.5 20:15:25 10° SE 20:19:58 33° ENE 20:24:32 10° N
Cosmos 407 Rocket 4.5 20:15:44 10° N 20:20:32 33° ENE 20:25:16 10° SE
Cosmos 371 Rocket 3.8 20:15:46 10° SSW 20:20:36 68° WNW 20:25:30 10° NNE
Cosmos 614 Rocket 4.1 20:18:08 10° NNW 20:23:18 68° ENE 20:28:30 10° SSE
Cosmos 1300 Rocket 3.8 20:19:24 10° N 20:23:36 50° E 20:27:47 10° SSE
NOSS 3-2 (C) 4.1 20:28:47 10° SSE 20:33:17 27° ESE 20:38:11 10° NE
OBJECT-B 2.4 20:32:09 10° SSW 20:35:07 34° W 20:38:05 10° NNW
NOSS 3-2 (A) 3.4 20:29:57 10° SSW 20:35:10 51° ESE 20:41:04 10° NE
Cosmos 332 Rocket 4.0 20:33:21 10° SSW 20:38:10 76° WNW 20:43:00 10° NNE
SJ-6B 4.1 20:34:41 10° S 20:38:36 43° W 20:42:32 10° NNW
Cosmos 1842 3.8 20:38:05 10° SSE 20:41:46 40° E 20:45:28 10° NNE
Cosmos 1726 3.9 20:39:41 10° NNE 20:42:07 17° ENE 20:44:15 11° ESE
Nadezhda 3 Rocket 4.2 20:36:41 10° SSW 20:42:49 75° W 20:49:00 10° N
Resurs 1-3 3.8 20:40:57 10° S 20:45:19 73° WSW 20:49:44 10° NNW
Cosmos 1766 3.2 20:41:34 10° N 20:45:25 65° E 20:49:15 10° SSE
IGS 5A 3.5 20:45:45 10° SSE 20:49:51 65° ENE 20:53:59 10° N
Aureole 2 Rocket 1.8 20:49:25 10° N 20:51:50 49° ENE 20:53:17 19° SE
Cosmos 2082 3.9 20:50:27 10° NNW 20:56:11 75° WSW 21:01:46 11° SSE
MetOp-B 4.3 20:52:27 12° SSE 20:57:18 58° ENE 21:02:34 10° N
Cosmos 1470 3.8 20:54:01 10° NNE 20:57:33 30° ENE 20:59:55 17° SE
Okean 1 Rocket 4.0 20:53:51 10° NNE 20:57:46 32° ENE 21:00:34 16° SE
SL-16 R/B 3.1 20:54:37 10° SSE 20:59:25 29° ESE 21:04:14 10° NE
Cosmos 1697 Rocket 4.3 20:54:32 10° SW 20:59:44 39° WNW 21:05:00 10° N
SPOT 5 4.4 20:58:02 13° ESE 21:01:33 25° ENE 21:05:40 10° NNE
Cosmos 2278 3.9 20:59:08 10° SSW 21:04:50 80° WNW 21:10:33 10° NNE
Cosmos 2322 Rocket 3.3 21:01:48 15° SSE 21:05:14 25° ESE 21:09:49 10° NE
Ariane Rocket 3.8 21:00:33 10° S 21:05:27 48° W 21:10:24 10° NNW
Cosmos 2360 Rocket 3.8 21:06:00 13° ESE 21:07:08 14° E 21:09:58 10° ENE
SWAS 4.4 21:03:11 10° SSW 21:07:28 81° ESE 21:11:47 10° NNE
Cosmos 2221 Rocket 4.3 21:03:09 10° SSW 21:07:33 55° W 21:11:56 10° N
USA 238 DEB 3.6 21:01:44 10° SSW 21:08:09 68° ESE 21:14:53 10° NE
USA 238 3.6 21:01:51 10° SSW 21:08:15 68° ESE 21:14:59 10° NE
Cosmos 1339 Rocket 4.4 21:04:36 10° S 21:10:50 80° E 21:17:01 10° N
Meteor 1-22 Rocket 4.3 21:05:14 10° N 21:11:15 87° E 21:16:26 13° S
Resurs 01 Rocket 1.9 21:07:36 10° S 21:11:54 66° W 21:16:18 10° NNW
USA 215 3.5 21:06:30 10° ENE 21:12:41 43° SE 21:18:49 10° SSW
Cosmos 1378 Rocket 3.4 21:08:36 10° S 21:12:54 76° E 21:17:15 10° N
CZ-2C R/B 3.7 21:10:27 10° NNE 21:15:15 81° ESE 21:20:01 10° S
Okean 2 Rocket 3.7 21:11:37 10° NNW 21:16:00 55° W 21:20:23 10° S
BREEZE-M DEB (TANK) 2.0 21:14:29 10° SW 21:16:45 59° SE 21:20:16 10° ENE
Cosmos 1624 Rocket 4.1 21:13:14 10° SSW 21:18:35 84° WNW 21:23:55 10° NNE
Genesis I 3.9 21:16:50 21° SSE 21:18:39 32° ESE 21:22:09 10° NE
Lacrosse 5 3.4 21:14:26 10° NNW 21:18:47 28° NNE 21:23:08 10° E
Meteor 2-20 4.5 21:16:50 12° S 21:22:24 62° E 21:28:25 10° NNE
Cosmos 1626 4.5 21:24:21 10° E 21:24:21 10° E 21:24:51 10° ENE
Cosmos 2151 Rocket 4.1 21:20:18 10° NNW 21:24:38 56° W 21:28:28 13° S
Cosmos 1980 Rocket 3.3 21:20:45 10° SW 21:26:09 45° WNW 21:31:33 10° NNE
SPOT 1/Viking Rocket 3.6 21:29:21 19° S 21:33:08 80° WSW 21:38:18 10° NNW
Terra 2.8 21:30:59 22° ESE 21:33:12 32° ENE 21:37:24 10° N
Cosmos 1140 Rocket 3.8 21:28:20 10° NNW 21:33:31 63° WSW 21:37:13 19° S
Cosmos 1953 3.9 21:30:24 10° NNE 21:33:34 22° ENE 21:34:36 20° E
CENTAUR R/B 2.5 21:28:34 10° SW 21:34:17 86° WNW 21:41:09 10° NE
Cosmos 1400 Rocket 4.3 21:32:50 10° NNW 21:36:18 31° W 21:39:35 11° SSW
Cosmos 292 Rocket 3.8 21:32:49 17° S 21:36:25 60° ESE 21:41:11 10° NNE
USA 245 3.7 21:34:55 24° S 21:37:23 80° WSW 21:42:27 10° NNW
Cosmos 1674 3.6 21:37:32 28° ESE 21:37:59 29° E 21:41:14 10° NNE
Cosmos 220 Rocket 4.0 21:33:48 10° SSW 21:38:08 82° WNW 21:42:27 10° NNE
H-2A R/B 4.3 21:38:22 10° NE 21:41:58 29° E 21:42:27 28° ESE
Cosmos 1452 Rocket 3.7 21:39:10 23° S 21:42:16 52° ESE 21:47:24 10° NNE
CARTOSAT-1 3.5 21:41:40 30° SSE 21:43:48 84° ENE 21:48:08 10° N
Cosmos 1707 2.9 21:47:56 22° SSW 21:50:17 68° W 21:54:09 10° N
Cosmos 1975 Rocket 3.2 21:49:02 36° SSE 21:50:30 53° E 21:54:45 10° NNE
ARIANE 5 R/B 2.6 21:48:39 31° S 21:50:46 85° W 21:55:14 10° NNW
Cosmos 2100 Rocket 4.4 21:45:02 10° N 21:51:13 49° ENE 21:54:16 28° SE
Cosmos 1844 Rocket 4.2 21:47:23 10° N 21:51:59 25° NE 21:55:01 16° E
Cosmos 1025 Rocket 3.9 21:55:41 31° ESE 21:56:16 32° E 22:00:10 10° NNE
Cosmos 2333 Rocket 3.7 22:00:00 18° E 22:00:00 18° E 22:03:41 10° ENE
Cosmos 2263 Rocket 2.5 21:57:48 10° NNW 22:03:26 61° WSW 22:06:17 29° S
Cosmos 1340 4.3 22:10:26 21° ENE 22:10:26 21° ENE 22:12:43 10° NE
Spot 2 Rocket 4.1 22:07:15 25° SSW 22:09:58 50° W 22:14:53 10° NNW
Cosmos 1331 Rocket 4.3 22:16:12 41° SE 22:17:10 46° ESE 22:22:11 10° NNE
Cosmos 1726 3.9 22:14:14 10° NNW 22:17:16 26° W 22:18:43 20° SW
In-Cosmos 22 4.4 22:13:56 21° SSW 22:17:27 64° WNW 22:22:42 10° N
Cosmos 2173 Rocket 4.0 22:11:11 10° N 22:17:35 74° E 22:20:19 36° SSE
Cosmos 1727 Rocket 4.4 22:12:48 15° SSW 22:18:00 60° W 22:24:15 10° N
Cosmos 2016 Rocket 4.3 22:13:24 10° N 22:19:18 49° ENE 22:21:23 35° SE
NOSS 8 (A) 4.4 22:19:37 64° WSW 22:19:58 74° NW 22:22:59 10° NNE
Cosmos 1315 Rocket 4.3 22:19:08 10° NNW 22:22:49 32° W 22:24:26 23° SW
NOSS 3-2 (C) 4.3 22:18:19 10° WSW 22:23:41 48° NW 22:29:51 10° NNE
Cosmos 1741 Rocket 4.0 22:21:01 10° NNW 22:26:16 69° ENE 22:27:44 46° SE
ERS-1 Rocket 3.5 22:25:10 32° SSW 22:27:11 52° W 22:32:07 10° NNW
Cosmos 1725 Rocket 4.4 22:21:42 10° N 22:27:41 49° ENE 22:29:40 37° SE
Cosmos 2219 Rocket 3.2 22:31:32 28° ESE 22:31:32 28° ESE 22:36:15 10° NE
Cosmos 1802 Rocket 4.0 22:26:35 10° N 22:32:50 77° E 22:35:08 42° SSE
GEOS 3 Rocket 3.8 22:33:47 39° ESE 22:35:42 66° NE 22:41:01 10° NNW
Cosmos 1544 Rocket 3.5 22:32:56 10° N 22:37:25 76° E 22:37:55 66° SE
SPOT 5 3.9 22:37:16 28° SSW 22:39:23 41° W 22:44:13 10° NNW
ATLAS 3B R/B 2.9 22:39:31 40° SE 22:40:23 42° ESE 22:46:36 10° NE
Cosmos 1455 Rocket 3.5 22:38:36 10° NNW 22:42:57 55° W 22:43:49 46° SW
SL-16 R/B 3.5 22:38:04 10° SW 22:43:20 39° WNW 22:48:38 10° N
Cosmos 1461 3.9 22:42:46 10° NNW 22:46:41 36° NE 22:47:11 34° ENE
Meteor 2-5 Rocket 3.8 22:47:48 50° SE 22:48:42 57° E 22:54:08 10° NNE
Cosmos 2322 Rocket 3.2 22:43:32 10° SW 22:48:58 45° WNW 22:54:28 10° NNE
Meteor 1-16 Rocket 4.5 22:43:40 10° NNW 22:49:04 57° W 22:50:44 40° SSW
Cosmos 2360 Rocket 2.3 22:47:42 32° SW 22:50:23 76° WNW 22:56:03 10° NNE
COSMOS 2428 3.5 22:50:46 34° ESE 22:50:46 34° ESE 22:55:47 10° NE
Lacrosse 5 rocket 3.5 22:57:46 14° ENE 22:57:46 14° ENE 22:58:18 10° NE
USA 215 3.9 22:49:23 10° NE 22:55:45 56° NW 23:02:07 10° WSW
Cosmos 2322 3.7 22:57:38 55° SE 22:58:14 58° ESE 23:03:47 10° NNE
Cosmos 1626 3.0 22:58:50 43° W 22:58:53 43° W 23:02:25 10° N
Cosmos 2061 Rocket 4.0 22:53:21 10° N 22:59:49 85° W 23:01:48 48° S
Lacrosse 5 1.8 22:57:05 10° NW 23:02:06 63° SW 23:02:23 62° SSW
Cosmos 1536 Rocket 3.5 23:05:04 78° SW 23:05:17 81° W 23:09:47 10° N
Cosmos 1953 3.9 23:06:30 10° NNW 23:09:53 26° W 23:10:16 25° W
Terra 3.3 23:09:52 24° WSW 23:10:55 26° W 23:14:55 10° NW
Cosmos 2278 Rocket 4.2 23:09:27 10° N 23:13:32 20° NE 23:16:33 14° E
Meteor 2-10 Rocket 3.9 23:08:56 10° N 23:13:52 45° ENE 23:14:19 44° E
ATLAS CENTAUR R/B 3.1 23:10:25 10° N 23:14:12 28° NE 23:15:12 26° ENE
Cosmos 1300 3.2 23:11:56 10° N 23:15:05 59° NNW 23:15:05 59° NNW
Cosmos 405 4.1 23:15:54 10° NNW 23:18:19 41° NNW 23:18:19 41° NNW
USA 267 3.3 23:24:45 38° ESE 23:27:31 77° NE 23:34:04 10° NW
Cosmos 968 Rocket 3.8 23:28:28 10° N 23:33:29 54° ENE 23:33:58 51° E
Cosmos 1844 Rocket 3.0 23:30:40 10° NNW 23:36:08 51° WSW 23:36:40 49° SW
Cosmos 1447 Rocket 4.5 23:40:09 56° SSW 23:41:32 79° W 23:47:47 10° N
COBE Rocket 3.8 23:41:58 81° SSE 23:42:14 87° E 23:47:19 10° N
Spot 4 4.0 23:42:45 63° W 23:42:45 63° W 23:47:28 10° NNW
Cosmos 2333 Rocket 2.5 23:41:58 44° WSW 23:43:36 62° WNW 23:49:18 10° NNE
Cosmos 2233 Rocket 4.1 23:38:01 10° NNW 23:44:04 64° W 23:45:16 53° SW
Cosmos 2058 Rocket 4.2 23:43:01 10° N 23:46:54 35° ENE 23:46:54 35° ENE
Cosmos 1980 4.4 23:49:19 39° E 23:49:19 39° E 23:54:19 10° NE
Cosmos 2228 3.2 23:44:56 10° N 23:48:51 69° NNW 23:48:51 69° NNW
Meteor 1-24 Rocket 4.2 23:52:14 42° WSW 23:53:12 47° WNW 23:58:24 10° N
